Regional Weather Roundup
Issued by NWS Newport/Morehead, NC

Current Version | Previous Version | Text Only | Print | Product List | Glossary Off
Versions: 1 2 3 4 5 6 7 8 9 10 11 12 13 14 15 16 17 18 19 20 21 22 23 24 25 26 27 28 29 30 31 32 33 34 35 36 37 38 39 40 41 42 43 44 45 46 47 48 49 50
931 ASUS42 KMHX 270125 RWRMHX WEATHER ROUNDUP FOR EASTERN NORTH CAROLINA NATIONAL WEATHER SERVICE NEWPORT/MOREHEAD CITY NC 900 PM EDT MON SEP 26 2016 NOTE: "FAIR" INDICATES FEW OR NO CLOUDS BELOW 12,000 FEET WITH NO SIGNIFICANT WEATHER AND/OR OBSTRUCTIONS TO VISIBILITY NCZ015>017-031-032-045>047-102-103-270200- NORTH COAST CITY SKY/WX TMP DP RH WIND PRES REMARKS EDENTON CLOUDY 75 65 73 S5 30.07S ELIZABETH CITY CLOUDY 73 65 75 S7 30.07R KITTY HAWK CLEAR 72 67 83 CALM 30.07S MANTEO CLEAR 75 64 68 S12 30.08S $$ NCZ045>047-081-094-103-104-270200- CENTRAL COAST CITY SKY/WX TMP DP RH WIND PRES REMARKS FRISCO CLEAR 78 67 68 SE12 30.08R $$ NCZ095-097-098-100-101-270200- SOUTHERN COAST CITY SKY/WX TMP DP RH WIND PRES REMARKS BEAUFORT CLOUDY 75 66 73 SE3 30.08R CEDAR ISLAND NOT AVBL JACKSONVILLE MOCLDY 74 67 78 E6 30.06R PINEY ISLAND CLEAR N/A N/A N/A SE5 30.08R WILMINGTON CLEAR 73 68 84 E3 30.06R $$ NCZ011>013-027>030-043-044-078>080-089-090>093-098-270200- COASTAL PLAIN CITY SKY/WX TMP DP RH WIND PRES REMARKS AHOSKIE PTCLDY 69 65 88 CALM 30.06F CLINTON PTCLDY 73 68 86 CALM 30.07R ELIZABETHTOWN MOCLDY 73 69 86 CALM 30.06S GOLDSBORO CLEAR 73 70 90 SE2 30.05R GREENVILLE CLEAR 72 66 83 S6 30.08S HAVELOCK CLOUDY 72 68 87 CALM 30.09R KENANSVILLE CLEAR 70 68 94 CALM 30.07S KINSTON CLEAR 73 66 78 SE6 30.07R NEW BERN CLOUDY 73 67 81 SE3 30.08R RICHLANDS MOCLDY 72 68 87 NE3 30.08R ROCKY MOUNT CLOUDY 71 67 87 CALM 30.06R WASHINGTON CLEAR 70 66 87 CALM 30.07R WHITEVILLE NOT AVBL $$ AMZ130-135-150-152-154-156-158-170-250-252-270-ANZ085-086-088-633-658-670-270200- MARINE OBSERVATIONS STATION/POSITION TIME TEMP WIND PRES WAVE SWELL AIR SEA DIR/SP/G HT/PER HT/PER (UTC) (F) (DEG/KT/KT) (MB) (FT/S) (FT/S) CHESAPEAKE LIGHT NOT AVBL 64 E VA BEACH 0050 76 75 170/ 14/ 17 1018.3 4/ 4 2/ 8 DUCK 0100 75 76 170/ 7/ 9 1017.7 2 E DUCK 0011 77 N/A 3/ 8 OREGON INLET 0100 76 77 160/ 9/ 11 1018.3 13E OREGON INLT 0030 77 N/A 3/ 9 3/ 9 HATTERAS CG 0100 78 78 170/ 4/ 7 1018.2 DIAMOND BUOY 0050 79 81 140/ 14/ 17 1018.2 3/ 7 2/ 7 CAPE LOOKOUT 0100 78 140/ 10/ 11 1018.2 BEAUFORT LAB 0100 77 77 140/ 5/ 6 1017.9 30 SE NEW RVR IN 0108 80 83 130/ 10/ 14 1018.1 30 SE NEW RVR IN 0025 83 N/A 3/ 8 27 SE WRIGHTSVLE 0108 80 81 120/ 12/ 16 1017.9 5 SE WRIGHTSVLE 0008 79 81 100/ 10/ 14 1018.4 225 S CAPE HAT 0050 78 83 110/ 16/ 17 1016.4 5/ 6 3/ 8 41 SE CHARLESTON 0050 79 82 90/ 12/ 14 1015.9 3/ 8 2/ 8 $$

USA.gov is the U.S. government's official web portal to all federal, state and local government web resources and services.